Regional Weather Roundup
Issued by NWS

Home | Current Version | Previous Version | Graphics & Text | Print | Product List | Glossary On
Versions: 1 2 3 4 5 6 7 8 9 10 11 12 13 14 15 16 17 18 19 20 21 22 23 24 25 26 27 28 29 30 31 32 33 34 35 36 37 38 39 40 41 42 43 44 45 46 47 48 49 50
000
ASUS43 KBIS 212220
RWRND

NORTH DAKOTA REGIONAL WEATHER ROUNDUP
NATIONAL WEATHER SERVICE BISMARCK ND
400 PM CST SUN DEC 21 2014

NOTE: "FAIR" INDICATES FEW OR NO CLOUDS BELOW 12,000 FEET WITH NO
SIGNIFICANT WEATHER AND/OR OBSTRUCTIONS TO VISIBILITY.


NDZ001>003-009>011-017-212300-
NORTHWEST NORTH DAKOTA

CITY           SKY/WX    TMP DP  RH WIND       PRES   REMARKS
WILLISTON      CLOUDY    37  27  67 CALM      29.33S
MINOT          CLOUDY    37  30  75 SE10      29.38F
MINOT AFB      CLOUDY    32  32 100 SE10      29.38F
$$

NDZ018>021-031>035-040>046-212300-
SOUTHWEST NORTH DAKOTA

CITY           SKY/WX    TMP DP  RH WIND       PRES   REMARKS
BISMARCK       CLEAR     37  28  70 SE8       29.43S
DICKINSON      CLOUDY    41  28  60 S7        29.33S
GARRISON         N/A     37  31  78 SE10      29.38F
HETTINGER ARPT CLOUDY    40  28  62 SW7       29.37F
$$

NDZ004>008-012>016-024-026-027-054-212300-
NORTHEAST NORTH DAKOTA

CITY           SKY/WX    TMP DP  RH WIND       PRES   REMARKS
GRAND FORKS    CLOUDY    32  30  92 S14       29.60R FOG
GRND FRKS AFB  CLOUDY    31  31 100 S13       29.59R
DEVILS LAKE    CLOUDY    30  25  80 SE10      29.49S
$$

NDZ022-023-025-028>030-036>039-047>053-212300-
SOUTHEAST NORTH DAKOTA

CITY           SKY/WX    TMP DP  RH WIND       PRES   REMARKS
FARGO          CLOUDY    34  31  88 SE13      29.59S
JAMESTOWN      CLOUDY    32  30  92 SE10      29.49F
$$



USA.gov is the U.S. government's official web portal to all federal, state and local government web resources and services.